Location: Juzet
(42.9779°N, 0.7597°E)
Time: 19:08:04
(UTC+00:00)

Cosmos 1190 Rocket - Pass Details

Date: 14 July 2020
Orbit: 756 x 781 km, 74.1° (Epoch: 12 August)

Event Time Altitude Azimuth Distance (km) Brightness Sun altitude
Exits shadow 02:06:35 37° 227° (SW) 1,162 4.4 -19.4°
Maximum altitude 02:08:30 63° 292° (WNW) 852 4.1 -19.2°
Drops below altitude 10° 02:13:43 10° 14° (NNE) 2,316 7.6 -18.7°
Sets 02:16:09 0° 18° (NNE) 3,251 8.7 -18.5°
